Simultaneous Nadir Overpasses (SNOs) Predictions

Prediction of SNOs between GOES-17 and AQUA Satellite Orbit:

Table of predicted SNOs for the next 14.0 days since TLE Epoch: 3/18/2022
Index Date Time (GOES-17) GOES-17 Lat,Lon AQUA Lat,Lon Distance(km) Time Diff (sec)
1 03/19/2022 22:38:50 0.04,-137.20 0.37,-135.82 158.19 80
2 03/20/2022 11:02:43 -0.04,-137.21 0.76,-140.96 426.54 80
3 03/21/2022 22:29:11 0.04,-137.21 0.97,-132.82 498.52 80
4 03/22/2022 10:50:25 -0.04,-137.21 0.09,-137.97 86.47 80
5 03/24/2022 10:35:26 -0.04,-137.20 -0.53,-134.98 252.81 80
6 03/24/2022 22:56:48 0.04,-137.19 -0.60,-140.15 337.13 80
7 03/26/2022 22:44:29 0.03,-137.17 0.04,-137.16 1.93 80
8 03/28/2022 22:34:49 0.02,-137.15 0.63,-134.15 339.95 80
9 03/29/2022 10:56:03 -0.02,-137.15 0.42,-139.31 245.25 80
10 03/31/2022 10:41:03 -0.01,-137.12 -0.19,-136.31 93.09 80
11 03/31/2022 23:02:25 0.01,-137.11 -0.92,-141.48 497.09 80
